Погода в Беркелланде

Нидерланды     52°05′35″N   6°34′26″E
темп.,
°C
ветер,
м/с
пор.,
м/с
влажн.,
%
обл.,
%
осадки,
мм/ч
давл.,
гПа
погр.,
м
8 марта, пн
пн801:00+1зсз369794 0.1 1023166
04:00+3з359994 0.1 1023181
07:00+3зсз359697 0.3 1023222
10:00+4сз2396100 0.3 1024180
13:00+4зсз1193100 0.9 1023183
16:00+6юз127397 0.0 1022494
19:00+4юз128799 0.1 102288
22:00+4ююз2489100 0.1 1022178
9 марта, вт
вт901:00+3юз4791100 0.4 1020504
04:00+3ююз71097100 1.0 1018448
07:00+4юз61095100 2.5 1017461
10:00+6з4792100 1.2 1017473
13:00+8зсз467999 2.4 1017837
16:00+8зсз577394 0.6 10171002
19:00+6зсз368983 0.8 1017263
22:00+3зсз23963 0.0 101984
10 марта, ср
ср1001:00+1зюз239710 0.0 101867
04:00+3юз249467 0.0 1019169
07:00+4юз479583 0.0 1019269
10:00+5ююз5885100 0.0 1019378
13:00+8ююз71072100 0.0 1018873
16:00+9ююз71168100 0.0 10161247
19:00+8ююз61273100 0.0 1014947
22:00+7ююз91576100 0.2 10121038
11 марта, чт
чт1101:00+7ююз101783100 1.8 1009969
04:00+7ююз101981100 0.4 1005838
07:00+8ююз111982100 0.6 1002929
10:00+9юз101788100 1.1 1001981
13:00+13зюз12205580 2.3 10012420
16:00+11зюз11195979 0.6 10012029
19:00+8зюз8177089 0.9 10021288
22:00+7зюз8167597 0.4 10041165
12 марта, пт
пт1201:00+5зюз8157880 0.6 10061047
04:00+4зюз815814 0.0 1007871
07:00+4юз7158132 0.0 1008899
10:00+7юз10157193 0.0 10081508
13:00+7юз11177697 0.2 10071442
16:00+7юз111880100 0.1 10051325
19:00+6зюз71385100 2.2 1005967
22:00+5юз6149079 0.5 1005766